Location: *
(44.1392°N, 4.8079°E)
Time: 08:30:47
(UTC+00:00)

PSLV R/B - Pass Details

Date: 21 June 2021
Orbit: 598 x 700 km, 97.9° (Epoch: 31 July)

Event Time Altitude Azimuth Distance (km) Brightness Sun altitude
Rises 00:22:33 0° 7° (N) 2,902 8.5 -21.8°
Reaches altitude 10° 00:24:45 10° 3° (N) 2,005 7.3 -21.7°
Maximum altitude 00:28:58 51° 288° (WNW) 804 4.1 -21.6°
Enters shadow 00:29:53 43° 249° (WSW) 899 4.1 -21.6°
